When you browse on this site, cookies collect data to enhance your experience and personalize the content and advertising you see.
Visit our Privacy Policy to learn more. By continuing to use the site, you agree to this use of cookies and data.
  • Em Portugal
  • Lista de países
  • Para 7 dias
  • Temperatura da água
  • Mapas de satélite
  • Mapa do tempo
  • Widgets de tempo
  • user-avatar
    Iniciar Sessão

    Previsão horária em Newcastle

    Hoje, 18 Julho, Quinta-feira

    Tempo Temperatura Precipitação Vento Pressão Humidade
    00:00 +14°C° 0 mm 4 m/s 743 mmHg 95%
    01:00 +14°C° 0.2 mm 4 m/s 743 mmHg 96%
    02:00 +14°C° 0.2 mm 3 m/s 742 mmHg 96%
    03:00 +14°C° 0.2 mm 3 m/s 742 mmHg 97%
    04:00 +14°C° 0.1 mm 3 m/s 742 mmHg 95%
    05:00 +14°C° 0.1 mm 3 m/s 742 mmHg 93%
    06:00 +13°C° 0 mm 3 m/s 742 mmHg 91%
    07:00 +14°C° 0 mm 3 m/s 743 mmHg 85%
    08:00 +16°C° 0 mm 3 m/s 743 mmHg 80%
    09:00 +17°C° 0 mm 4 m/s 743 mmHg 75%
    10:00 +18°C° 0.1 mm 4 m/s 743 mmHg 72%
    11:00 +18°C° 0.1 mm 4 m/s 743 mmHg 68%
    12:00 +19°C° 0.1 mm 4 m/s 743 mmHg 65%
    13:00 +19°C° 0.1 mm 5 m/s 743 mmHg 65%
    14:00 +19°C° 0.1 mm 5 m/s 744 mmHg 64%
    15:00 +20°C° 0.1 mm 5 m/s 744 mmHg 64%
    16:00 +19°C° 0.1 mm 5 m/s 744 mmHg 68%
    17:00 +19°C° 0.1 mm 4 m/s 744 mmHg 72%
    18:00 +18°C° 0.1 mm 4 m/s 744 mmHg 75%
    19:00 +17°C° 0 mm 3 m/s 744 mmHg 79%
    20:00 +14°C° 0 mm 3 m/s 744 mmHg 83%
    21:00 +13°C° 0 mm 3 m/s 745 mmHg 87%
    22:00 +12°C° 0 mm 3 m/s 745 mmHg 89%
    23:00 +12°C° 0 mm 3 m/s 745 mmHg 92%

    Amanhã, 19 Julho, Sexta-feira

    Tempo Temperatura Precipitação Vento Pressão Humidade
    00:00 +11°C° 0 mm 3 m/s 745 mmHg 94%
    01:00 +11°C° 0 mm 3 m/s 745 mmHg 94%
    02:00 +11°C° 0 mm 3 m/s 744 mmHg 95%
    03:00 +11°C° 0 mm 3 m/s 744 mmHg 96%
    04:00 +11°C° 0 mm 3 m/s 744 mmHg 93%
    05:00 +12°C° 0 mm 3 m/s 744 mmHg 91%
    06:00 +13°C° 0 mm 3 m/s 744 mmHg 89%
    07:00 +13°C° 0.2 mm 4 m/s 744 mmHg 88%
    08:00 +14°C° 0.2 mm 4 m/s 743 mmHg 88%
    09:00 +14°C° 0.2 mm 5 m/s 743 mmHg 87%
    10:00 +14°C° 0.8 mm 6 m/s 743 mmHg 89%
    11:00 +15°C° 0.8 mm 6 m/s 742 mmHg 91%
    12:00 +15°C° 0.8 mm 6 m/s 742 mmHg 92%
    13:00 +16°C° 0.2 mm 7 m/s 741 mmHg 89%
    14:00 +18°C° 0.2 mm 7 m/s 741 mmHg 86%
    15:00 +20°C° 0.2 mm 7 m/s 741 mmHg 83%
    16:00 +20°C° 0.6 mm 7 m/s 741 mmHg 85%
    17:00 +20°C° 0.6 mm 6 m/s 740 mmHg 86%
    18:00 +19°C° 0.6 mm 5 m/s 740 mmHg 88%
    19:00 +17°C° 0.1 mm 5 m/s 740 mmHg 89%
    20:00 +16°C° 0.1 mm 5 m/s 740 mmHg 90%
    21:00 +15°C° 0.1 mm 5 m/s 741 mmHg 92%
    22:00 +15°C° 0 mm 5 m/s 741 mmHg 91%
    23:00 +15°C° 0 mm 5 m/s 741 mmHg 91%

    Depois de amanhã, 20 Julho, Sábado

    Tempo Temperatura Precipitação Vento Pressão Humidade
    00:00 +14°C° 0 mm 6 m/s 741 mmHg 91%
    01:00 +14°C° 0 mm 5 m/s 740 mmHg 91%
    02:00 +14°C° 0 mm 5 m/s 740 mmHg 92%
    03:00 +14°C° 0 mm 5 m/s 740 mmHg 93%
    04:00 +14°C° 0 mm 5 m/s 740 mmHg 93%
    05:00 +14°C° 0 mm 5 m/s 740 mmHg 93%
    06:00 +14°C° 0 mm 5 m/s 740 mmHg 92%
    07:00 +15°C° 0.2 mm 5 m/s 740 mmHg 90%
    08:00 +16°C° 0.2 mm 5 m/s 740 mmHg 87%
    09:00 +17°C° 0.2 mm 5 m/s 741 mmHg 85%
    10:00 +19°C° 0.8 mm 6 m/s 741 mmHg 82%
    11:00 +20°C° 0.8 mm 6 m/s 741 mmHg 79%
    12:00 +21°C° 0.8 mm 6 m/s 742 mmHg 76%
    13:00 +20°C° 0.5 mm 6 m/s 742 mmHg 78%
    14:00 +18°C° 0.5 mm 7 m/s 742 mmHg 80%
    15:00 +18°C° 0.5 mm 7 m/s 742 mmHg 82%
    16:00 +17°C° 0 mm 6 m/s 743 mmHg 79%
    17:00 +17°C° 0 mm 6 m/s 744 mmHg 77%
    18:00 +17°C° 0 mm 5 m/s 744 mmHg 75%
    19:00 +15°C° 0 mm 4 m/s 745 mmHg 79%
    20:00 +14°C° 0 mm 3 m/s 746 mmHg 83%
    21:00 +14°C° 0 mm 2 m/s 747 mmHg 87%
    22:00 +13°C° 0 mm 2 m/s 747 mmHg 89%
    23:00 +13°C° 0 mm 1 m/s 747 mmHg 91%

    21 Julho, Domingo

    Tempo Temperatura Precipitação Vento Pressão Humidade
    00:00 +13°C° 0 mm 1 m/s 748 mmHg 93%
    01:00 +12°C° 0 mm 1 m/s 748 mmHg 93%
    02:00 +12°C° 0 mm 1 m/s 748 mmHg 93%
    03:00 +12°C° 0 mm 1 m/s 748 mmHg 94%
    04:00 +13°C° 0 mm 1 m/s 749 mmHg 92%
    05:00 +13°C° 0 mm 1 m/s 749 mmHg 91%
    06:00 +14°C° 0 mm 1 m/s 750 mmHg 90%
    07:00 +15°C° 0 mm 2 m/s 750 mmHg 86%
    08:00 +17°C° 0 mm 3 m/s 750 mmHg 81%
    09:00 +18°C° 0 mm 4 m/s 751 mmHg 76%
    10:00 +19°C° 0 mm 4 m/s 751 mmHg 73%
    11:00 +20°C° 0 mm 4 m/s 751 mmHg 70%
    12:00 +21°C° 0 mm 5 m/s 751 mmHg 67%
    13:00 +21°C° 0 mm 5 m/s 751 mmHg 67%
    14:00 +21°C° 0 mm 5 m/s 751 mmHg 67%
    15:00 +22°C° 0 mm 5 m/s 751 mmHg 66%
    16:00 +21°C° 0 mm 4 m/s 751 mmHg 70%
    17:00 +21°C° 0 mm 4 m/s 751 mmHg 74%
    18:00 +21°C° 0 mm 4 m/s 751 mmHg 77%
    19:00 +19°C° 0 mm 4 m/s 751 mmHg 82%
    20:00 +17°C° 0 mm 3 m/s 752 mmHg 86%
    21:00 +16°C° 0 mm 3 m/s 752 mmHg 90%
    22:00 +14°C° 0 mm 3 m/s 752 mmHg 90%
    23:00 +14°C° 0 mm 3 m/s 752 mmHg 89%

    22 Julho, Segunda-feira

    Tempo Temperatura Precipitação Vento Pressão Humidade
    00:00 +13°C° 0 mm 3 m/s 752 mmHg 89%
    01:00 +13°C° 0 mm 3 m/s 751 mmHg 89%
    02:00 +13°C° 0 mm 4 m/s 751 mmHg 89%
    03:00 +13°C° 0 mm 4 m/s 751 mmHg 89%
    04:00 +13°C° 0 mm 4 m/s 751 mmHg 88%
    05:00 +14°C° 0 mm 4 m/s 751 mmHg 88%
    06:00 +14°C° 0 mm 4 m/s 751 mmHg 88%
    07:00 +15°C° 0 mm 4 m/s 751 mmHg 84%
    08:00 +18°C° 0 mm 4 m/s 751 mmHg 80%
    09:00 +19°C° 0 mm 4 m/s 752 mmHg 76%
    10:00 +20°C° 0 mm 5 m/s 752 mmHg 74%
    11:00 +22°C° 0 mm 5 m/s 752 mmHg 71%
    12:00 +23°C° 0 mm 5 m/s 752 mmHg 69%
    13:00 +23°C° 0 mm 5 m/s 752 mmHg 68%
    14:00 +25°C° 0 mm 5 m/s 751 mmHg 67%
    15:00 +25°C° 0 mm 5 m/s 751 mmHg 67%
    16:00 +25°C° 0 mm 4 m/s 751 mmHg 69%
    17:00 +23°C° 0 mm 4 m/s 751 mmHg 72%
    18:00 +24°C° 0 mm 3 m/s 751 mmHg 74%
    19:00 +21°C° 0 mm 3 m/s 751 mmHg 77%
    20:00 +19°C° 0 mm 2 m/s 751 mmHg 80%
    21:00 +18°C° 0 mm 2 m/s 751 mmHg 82%
    22:00 +17°C° 0 mm 2 m/s 751 mmHg 84%
    23:00 +17°C° 0 mm 2 m/s 751 mmHg 85%

    23 Julho, Terça-feira

    Tempo Temperatura Precipitação Vento Pressão Humidade
    00:00 +16°C° 0 mm 2 m/s 751 mmHg 86%
    01:00 +16°C° 0 mm 2 m/s 751 mmHg 88%
    02:00 +16°C° 0 mm 2 m/s 751 mmHg 89%
    03:00 +16°C° 0 mm 2 m/s 750 mmHg 91%
    04:00 +16°C° 0 mm 2 m/s 750 mmHg 90%
    05:00 +17°C° 0 mm 2 m/s 750 mmHg 89%
    06:00 +17°C° 0 mm 3 m/s 749 mmHg 87%
    07:00 +19°C° 0 mm 3 m/s 749 mmHg 83%
    08:00 +21°C° 0 mm 4 m/s 749 mmHg 78%
    09:00 +23°C° 0 mm 4 m/s 749 mmHg 74%
    10:00 +26°C° 0 mm 5 m/s 748 mmHg 70%
    11:00 +27°C° 0 mm 6 m/s 748 mmHg 67%
    12:00 +29°C° 0 mm 6 m/s 748 mmHg 63%
    13:00 +30°C° 0 mm 6 m/s 747 mmHg 63%
    14:00 +30°C° 0 mm 6 m/s 747 mmHg 62%
    15:00 +32°C° 0 mm 6 m/s 747 mmHg 61%
    16:00 +30°C° 0.1 mm 6 m/s 746 mmHg 65%
    17:00 +30°C° 0.1 mm 5 m/s 746 mmHg 68%
    18:00 +29°C° 0.1 mm 5 m/s 746 mmHg 72%
    19:00 +27°C° 1.7 mm 5 m/s 745 mmHg 77%
    20:00 +26°C° 1.7 mm 4 m/s 745 mmHg 83%
    21:00 +23°C° 1.7 mm 4 m/s 745 mmHg 88%
    22:00 +22°C° 3.3 mm 4 m/s 745 mmHg 90%
    23:00 +22°C° 3.3 mm 5 m/s 745 mmHg 91%
    Mostrar mais